This is the latest recevied weather packets stored in our database for station/object KB3KAV. If no packets are shown the sender has not sent any weather packets the latest 10 day(s).
| Time | Temp. | Humidity | Pressure | Rain* | Wind** | Luminosity | Snow |
|---|---|---|---|---|---|---|---|
| 1777751304 | 11.67° C | 39% | 1041 hPa | 0 mm | - | 185 W/m² | - |
| 1777750702 | 11.67° C | 37% | 1040.9 hPa | 0 mm | - | 716 W/m² | - |
| 1777750100 | 11.11° C | 39% | 1041.5 hPa | 0 mm | - | 279 W/m² | - |
| 1777749495 | 10.56° C | 39% | 1041.5 hPa | 0 mm | - | 117 W/m² | - |
| 1777748890 | 11.11° C | 39% | 1041.6 hPa | 0 mm | - | 103 W/m² | - |
| 1777748288 | 11.67° C | 38% | 1041.8 hPa | 0 mm | - | 224 W/m² | - |
| 1777747688 | 11.11° C | 38% | 1041.7 hPa | 0 mm | - | 272 W/m² | - |
| 1777747086 | 11.67° C | 40% | 1041.7 hPa | 0 mm | - | 223 W/m² | - |
| 1777746483 | 11.67° C | 37% | 1041.8 hPa | 0 mm | - | 628 W/m² | - |
| 1777745881 | 11.67° C | 37% | 1041.9 hPa | 0 mm | - | 201 W/m² | - |
| 1777745278 | 11.11° C | 38% | 1041.9 hPa | 0 mm | - | 201 W/m² | - |
| 1777744675 | 11.11° C | 38% | 1041.8 hPa | 0 mm | - | 221 W/m² | - |
| 1777744073 | 11.67° C | 40% | 1041.6 hPa | 0 mm | - | 681 W/m² | - |
| 1777743473 | 11.11° C | 39% | 1041.7 hPa | 0 mm | - | 370 W/m² | - |
| 1777742868 | 10.56° C | 41% | 1041.8 hPa | 0 mm | - | 387 W/m² | - |
| 1777742266 | 11.11° C | 40% | 1041.8 hPa | 0 mm | - | 642 W/m² | - |
| 1777741666 | 11.11° C | 42% | 1041.9 hPa | 0 mm | - | 331 W/m² | - |
| 1777741065 | 10.56° C | 41% | 1042 hPa | 0 mm | - | 324 W/m² | - |
| 1777740464 | 10.56° C | 41% | 1042.1 hPa | 0 mm | - | 286 W/m² | - |
| 1777739863 | 10.56° C | 41% | 1042.2 hPa | 0 mm | - | 229 W/m² | - |
| 1777739263 | 10.56° C | 42% | 1042.1 hPa | 0 mm | - | 207 W/m² | - |
| 1777738663 | 10.56° C | 43% | 1042.2 hPa | 0 mm | - | 370 W/m² | - |
| 1777738063 | 10° C | 44% | 1042.3 hPa | 0 mm | - | 166 W/m² | - |
| 1777737460 | 10.56° C | 41% | 1042.3 hPa | 0 mm | - | 209 W/m² | - |
| 1777736860 | 10° C | 44% | 1042.5 hPa | 0 mm | - | 822 W/m² | - |
* Rain latest hour (hover to see other rain measurements)
** Current wind speed in m/s (hover to see current wind gust speed)